750  
ASUS42 KCAE 232010  
RWRCAE  
REGIONAL WEATHER ROUNDUP  
NATIONAL WEATHER SERVICE COLUMBIA SC  
300 PM EST SUN FEB 23 2020  
 
NOTE: "FAIR" INDICATES FEW OR NO CLOUDS BELOW 12,000 FEET WITH NO  
SIGNIFICANT WEATHER AND/OR S TO VISIBILITY
.  
 
NOT ALL STATIONS ARE QUALITY CONTROLLED BY THE NATIONAL  
WEATHER SERVICE. USE DATA WITH CAUTION...ESPECIALLY  
DEWPOINT OBSERVATIONS.  
 
SCZ001>056-GAZ040-063>065-077-232100-   
..UPSTATE SOUTH CAROLINA
 
 
 
CITY SKY/WX TMP DP RH WIND PRES REMARKS
 
ANDERSON PTSUNNY 60 23 24 W10 30.18S  
LIBERTY FAIR 58 26 29 S8 30.16S  
SPARTANBURG FAIR 61 19 20 SW3 30.16F  
CLEMSON FAIR 58 25 28 VRB3 30.18F  
GREENVILLE FAIR 59 21 23 SW10 30.17F  
GREENWOOD FAIR 59 28 30 S7 30.20F  
GREER FAIR 61 22 22 SW9G18 30.16F  
ROCK HILL FAIR 60 24 25 S8 30.18F  
CHESTER FAIR 59 25 27 S6 30.18F  
LAURENS FAIR 59 28 31 SW9 30.18F  
 
   
..CENTRAL SOUTH CAROLINA
 
 
 
CITY SKY/WX TMP DP RH WIND PRES REMARKS
 
COLUMBIA APT PTSUNNY 60 26 27 S3 30.20F  
COLUMBIA OWENS FAIR 61 27 27 VRB3 30.21F  
MCENTIRE ANGB FAIR 61 25 25 SE8 30.20F  
ORANGEBURG FAIR 60 23 24 S7 30.21F  
NEWBERRY FAIR 59 30 33 SW8 30.21F  
AIKEN FAIR 60 25 26 S6 30.21F  
BARNWELL FAIR 63 16 16 W6 30.20F  
MANNING FAIR 57 23 26 S5 30.22F  
CAMDEN FAIR 61 27 27 S7 30.20F  
LANCASTER FAIR 61 23 23 S10 30.18F  
WINNSBORO FAIR 61 25 25 S8 30.19F  
 
   
..EASTERN AND COASTAL SOUTH CAROLINA
 
 
 
CITY SKY/WX TMP DP RH WIND PRES REMARKS
 
MYRTLE BEACH FAIR 53 33 46 SE8 30.24F  
N MYRTLE BCH FAIR 54 33 45 S7 30.23F  
CONWAY FAIR 61 28 29 S7 30.22F  
HARTSVILLE FAIR 61 25 25 S6 30.20F  
FLORENCE FAIR 62 23 22 SW9 30.21F  
DARLINGTON FAIR 60 27 28 SW9 30.20F  
CHARLESTON APT PTSUNNY 63 26 24 SE6 30.21F  
MOUNT PLEASANT FAIR 61 19 20 CALM 30.21F  
WALTERBORO FAIR 63 30 29 SW5 30.21F  
BEAUFORT FAIR 63 33 32 E6 30.21F  
HILTON HEAD SUNNY 57 34 41 E6 30.23F  
 
   
..EASTERN GEORGIA
 
 
 
CITY SKY/WX TMP DP RH WIND PRES REMARKS
 
AUGUSTA BUSH F FAIR 63 25 23 E6 30.19F  
AUGUSTA DANIEL FAIR 62 28 27 SE5 30.20F  
THOMSON FAIR 61 27 27 W8 30.20S  
WASHINGTON FAIR 59 28 31 S5 30.19F  
CLAXTON FAIR 66 41 40 CALM 30.20F  
SYLVANIA FAIR 64 34 33 S5 30.22F  
STATESBORO FAIR 64 38 39 SW6 30.20F  
SAVANNAH PTSUNNY 64 33 31 E3 30.21F  
 
   
..SOUTHERN NORTH CAROLINA
 
 
 
CITY SKY/WX TMP DP RH WIND PRES REMARKS
 
CHARLOTTE PTSUNNY 59 25 27 S7 30.18F  
MONROE FAIR 60 26 27 SW5 30.17F  
ASHEVILLE CLOUDY 58 20 22 CALM 30.13F  
 

 
 
 
CLICK HERE TO GO TO PREVIOUS BULLETINS.

The Nexlab SC Page
The Nexlab GA Page Main Text Page